Time,TemperatureF,DewpointF,PressureIn,WindDirection,WindDirectionDegrees,WindSpeedMPH,WindSpeedGustMPH,Humidity,HourlyPrecipIn,Conditions,Clouds,dailyrainin,SoftwareType,DateUTC
2013-06-24 00:04:00,55.2,51.0,29.74,South,191,4.0,13.0,85,0.00,,,0.00,weatherlink.com 1.10,2013-06-24 07:04:00,
2013-06-24 00:19:00,54.9,51.0,29.74,SSE,166,6.0,12.0,86,0.00,,,0.00,weatherlink.com 1.10,2013-06-24 07:19:00,
2013-06-24 00:34:00,54.4,50.0,29.74,SW,217,2.0,9.0,86,0.00,,,0.00,weatherlink.com 1.10,2013-06-24 07:34:00,
2013-06-24 01:04:00,53.8,50.0,29.74,SSE,166,4.0,12.0,88,0.00,,,0.00,weatherlink.com 1.10,2013-06-24 08:04:00,
2013-06-24 01:19:00,53.6,50.0,29.74,SSW,207,3.0,10.0,88,0.00,,,0.00,weatherlink.com 1.10,2013-06-24 08:19:00,
2013-06-24 01:34:00,53.5,50.0,29.74,NW,321,3.0,11.0,88,0.00,,,0.00,weatherlink.com 1.10,2013-06-24 08:34:00,
2013-06-24 01:49:00,53.6,50.0,29.74,SSW,198,4.0,7.0,87,0.00,,,0.00,weatherlink.com 1.10,2013-06-24 08:49:00,
2013-06-24 02:19:00,52.9,50.0,29.74,SSW,194,7.0,11.0,90,0.00,,,0.00,weatherlink.com 1.10,2013-06-24 09:19:00,
2013-06-24 02:34:00,52.9,50.0,29.74,South,172,7.0,13.0,89,0.00,,,0.00,weatherlink.com 1.10,2013-06-24 09:34:00,
2013-06-24 02:49:00,52.9,50.0,29.74,WSW,238,6.0,15.0,89,0.00,,,0.00,weatherlink.com 1.10,2013-06-24 09:49:00,
2013-06-24 03:04:00,52.6,50.0,29.74,South,181,11.0,14.0,90,0.00,,,0.00,weatherlink.com 1.10,2013-06-24 10:04:00,
2013-06-24 03:34:00,52.6,50.0,29.74,South,169,6.0,10.0,90,0.00,,,0.00,weatherlink.com 1.10,2013-06-24 10:34:00,
2013-06-24 03:49:00,52.1,49.0,29.75,SSE,163,5.0,10.0,90,0.00,,,0.00,weatherlink.com 1.10,2013-06-24 10:49:00,
2013-06-24 04:20:00,51.5,49.0,29.75,ENE,76,1.0,6.0,91,0.00,,,0.00,weatherlink.com 1.10,2013-06-24 11:20:00,
2013-06-24 04:50:00,50.9,49.0,29.76,ENE,76,0.0,8.0,92,0.00,,,0.00,weatherlink.com 1.10,2013-06-24 11:50:00,
2013-06-24 05:05:00,50.8,49.0,29.76,South,176,7.0,10.0,93,0.00,,,0.00,weatherlink.com 1.10,2013-06-24 12:05:00,
2013-06-24 05:20:00,50.8,49.0,29.76,SE,132,5.0,9.0,93,0.00,,,0.00,weatherlink.com 1.10,2013-06-24 12:20:00,
2013-06-24 05:35:00,50.8,49.0,29.77,South,180,5.0,16.0,93,0.00,,,0.00,weatherlink.com 1.10,2013-06-24 12:35:00,
2013-06-24 05:50:00,51.0,49.0,29.77,SE,125,2.0,11.0,94,0.00,,,0.00,weatherlink.com 1.10,2013-06-24 12:50:00,
2013-06-24 06:05:00,51.1,50.0,29.78,SE,140,0.0,10.0,94,0.00,,,0.00,weatherlink.com 1.10,2013-06-24 13:05:00,
2013-06-24 06:20:00,51.2,50.0,29.78,SW,214,5.0,18.0,94,0.00,,,0.00,weatherlink.com 1.10,2013-06-24 13:20:00,
2013-06-24 06:35:00,51.3,50.0,29.78,South,181,5.0,14.0,94,0.00,,,0.00,weatherlink.com 1.10,2013-06-24 13:35:00,
2013-06-24 07:05:00,51.4,50.0,29.79,WSW,255,2.0,20.0,95,0.00,,,0.00,weatherlink.com 1.10,2013-06-24 14:05:00,
2013-06-24 07:20:00,51.5,50.0,29.80,NW,307,2.0,11.0,95,0.00,,,0.00,weatherlink.com 1.10,2013-06-24 14:20:00,
2013-06-24 07:35:00,51.6,50.0,29.80,West,262,8.0,16.0,95,0.00,,,0.00,weatherlink.com 1.10,2013-06-24 14:35:00,
2013-06-24 08:05:00,51.5,50.0,29.82,SSE,155,11.0,14.0,95,0.00,,,0.00,weatherlink.com 1.10,2013-06-24 15:05:00,
2013-06-24 08:20:00,51.7,50.0,29.83,SSW,193,5.0,15.0,95,0.00,,,0.00,weatherlink.com 1.10,2013-06-24 15:20:00,
2013-06-24 08:35:00,52.1,51.0,29.83,SSW,213,11.0,19.0,94,0.00,,,0.00,weatherlink.com 1.10,2013-06-24 15:35:00,
2013-06-24 08:50:00,53.3,51.0,29.84,SW,215,12.0,20.0,90,0.00,,,0.00,weatherlink.com 1.10,2013-06-24 15:50:00,
2013-06-24 09:05:00,53.9,50.0,29.84,ESE,115,12.0,22.0,87,0.00,,,0.00,weatherlink.com 1.10,2013-06-24 16:05:00,
2013-06-24 09:35:00,54.2,51.0,29.84,SSW,207,8.0,22.0,87,0.00,,,0.00,weatherlink.com 1.10,2013-06-24 16:35:00,
2013-06-24 09:50:00,54.0,50.0,29.84,SW,222,13.0,25.0,87,0.00,,,0.00,weatherlink.com 1.10,2013-06-24 16:50:00,
2013-06-24 10:05:00,54.5,50.0,29.84,SSW,200,16.0,22.0,86,0.00,,,0.00,weatherlink.com 1.10,2013-06-24 17:05:00,
2013-06-24 10:20:00,55.2,51.0,29.85,South,189,10.0,21.0,84,0.00,,,0.00,weatherlink.com 1.10,2013-06-24 17:20:00,
2013-06-24 10:35:00,56.0,50.0,29.85,South,170,16.0,23.0,81,0.00,,,0.00,weatherlink.com 1.10,2013-06-24 17:35:00,
2013-06-24 11:05:00,57.2,50.0,29.85,South,187,14.0,24.0,78,0.00,,,0.00,weatherlink.com 1.10,2013-06-24 18:05:00,
2013-06-24 11:21:00,56.8,50.0,29.85,North,9,5.0,23.0,79,0.00,,,0.00,weatherlink.com 1.10,2013-06-24 18:21:00,
2013-06-24 11:36:00,57.6,50.0,29.86,South,176,5.0,20.0,77,0.00,,,0.00,weatherlink.com 1.10,2013-06-24 18:36:00,
2013-06-24 11:51:00,59.2,51.0,29.86,SSW,195,15.0,27.0,74,0.00,,,0.00,weatherlink.com 1.10,2013-06-24 18:51:00,
2013-06-24 12:06:00,59.9,51.0,29.86,SSW,195,7.0,23.0,72,0.00,,,0.00,weatherlink.com 1.10,2013-06-24 19:06:00,
2013-06-24 12:21:00,60.4,51.0,29.86,South,183,18.0,26.0,71,0.00,,,0.00,weatherlink.com 1.10,2013-06-24 19:21:00,
2013-06-24 12:36:00,60.4,51.0,29.85,SSW,193,16.0,27.0,70,0.00,,,0.00,weatherlink.com 1.10,2013-06-24 19:36:00,
2013-06-24 13:06:00,62.6,51.0,29.85,SSW,205,17.0,25.0,66,0.00,,,0.00,weatherlink.com 1.10,2013-06-24 20:06:00,
2013-06-24 13:21:00,63.2,51.0,29.85,South,187,18.0,24.0,65,0.00,,,0.00,weatherlink.com 1.10,2013-06-24 20:21:00,
2013-06-24 13:36:00,63.5,51.0,29.85,SSE,160,17.0,27.0,65,0.00,,,0.00,weatherlink.com 1.10,2013-06-24 20:36:00,
2013-06-24 13:51:00,63.9,51.0,29.86,SSW,201,10.0,28.0,64,0.00,,,0.00,weatherlink.com 1.10,2013-06-24 20:51:00,
2013-06-24 14:06:00,64.5,51.0,29.86,SSE,165,14.0,26.0,63,0.00,,,0.00,weatherlink.com 1.10,2013-06-24 21:06:00,
2013-06-24 14:21:00,65.1,52.0,29.86,SSW,205,9.0,25.0,62,0.00,,,0.00,weatherlink.com 1.10,2013-06-24 21:21:00,
2013-06-24 14:36:00,65.7,52.0,29.86,SSW,197,11.0,23.0,61,0.00,,,0.00,weatherlink.com 1.10,2013-06-24 21:36:00,
2013-06-24 14:51:00,65.6,52.0,29.86,SSE,153,16.0,23.0,62,0.00,,,0.00,weatherlink.com 1.10,2013-06-24 21:51:00,
2013-06-24 15:06:00,65.6,52.0,29.86,SSW,205,14.0,23.0,62,0.00,,,0.00,weatherlink.com 1.10,2013-06-24 22:06:00,
2013-06-24 15:21:00,65.3,52.0,29.85,WSW,239,19.0,19.0,63,0.00,,,0.00,weatherlink.com 1.10,2013-06-24 22:21:00,
2013-06-24 15:36:00,64.9,53.0,29.85,SSE,166,16.0,24.0,65,0.00,,,0.00,weatherlink.com 1.10,2013-06-24 22:36:00,
2013-06-24 15:51:00,64.7,53.0,29.86,SE,138,6.0,21.0,66,0.00,,,0.00,weatherlink.com 1.10,2013-06-24 22:51:00,
2013-06-24 16:06:00,64.4,53.0,29.86,SW,214,17.0,20.0,67,0.00,,,0.00,weatherlink.com 1.10,2013-06-24 23:06:00,
2013-06-24 16:21:00,63.8,53.0,29.85,South,184,9.0,21.0,68,0.00,,,0.00,weatherlink.com 1.10,2013-06-24 23:21:00,
2013-06-24 16:36:00,63.7,53.0,29.85,South,181,13.0,21.0,69,0.00,,,0.00,weatherlink.com 1.10,2013-06-24 23:36:00,
2013-06-24 16:51:00,63.6,53.0,29.85,South,183,10.0,20.0,69,0.00,,,0.00,weatherlink.com 1.10,2013-06-24 23:51:00,
2013-06-24 17:21:00,62.6,53.0,29.85,South,191,17.0,23.0,72,0.00,,,0.00,weatherlink.com 1.10,2013-06-25 00:21:00,
2013-06-24 17:36:00,62.0,53.0,29.86,South,177,11.0,21.0,73,0.00,,,0.00,weatherlink.com 1.10,2013-06-25 00:36:00,
2013-06-24 17:51:00,61.7,53.0,29.86,SW,234,10.0,20.0,74,0.00,,,0.00,weatherlink.com 1.10,2013-06-25 00:51:00,
2013-06-24 18:06:00,61.8,53.0,29.86,SSW,207,8.0,20.0,74,0.00,,,0.00,weatherlink.com 1.10,2013-06-25 01:06:00,
2013-06-24 18:21:00,61.3,53.0,29.86,SSE,166,8.0,18.0,75,0.00,,,0.00,weatherlink.com 1.10,2013-06-25 01:21:00,
2013-06-24 18:51:00,59.6,53.0,29.86,SSW,198,16.0,23.0,79,0.00,,,0.00,weatherlink.com 1.10,2013-06-25 01:51:00,
2013-06-24 19:06:00,59.2,53.0,29.86,South,186,9.0,19.0,80,0.00,,,0.00,weatherlink.com 1.10,2013-06-25 02:06:00,
2013-06-24 19:21:00,58.8,53.0,29.87,South,181,9.0,16.0,81,0.00,,,0.00,weatherlink.com 1.10,2013-06-25 02:21:00,
2013-06-24 19:36:00,58.6,53.0,29.87,South,186,12.0,15.0,82,0.00,,,0.00,weatherlink.com 1.10,2013-06-25 02:36:00,
2013-06-24 20:06:00,57.9,53.0,29.87,South,177,8.0,16.0,83,0.00,,,0.00,weatherlink.com 1.10,2013-06-25 03:06:00,
2013-06-24 20:36:00,57.4,53.0,29.88,South,171,9.0,18.0,85,0.00,,,0.00,weatherlink.com 1.10,2013-06-25 03:36:00,
2013-06-24 20:51:00,57.2,53.0,29.88,NW,304,2.0,14.0,85,0.00,,,0.00,weatherlink.com 1.10,2013-06-25 03:51:00,
2013-06-24 21:06:00,56.9,53.0,29.89,SW,235,2.0,18.0,86,0.00,,,0.00,weatherlink.com 1.10,2013-06-25 04:06:00,
2013-06-24 21:22:00,56.7,53.0,29.89,SSE,147,6.0,13.0,86,0.00,,,0.00,weatherlink.com 1.10,2013-06-25 04:22:00,
2013-06-24 21:36:00,56.7,53.0,29.90,WSW,241,8.0,13.0,86,0.00,,,0.00,weatherlink.com 1.10,2013-06-25 04:36:00,
2013-06-24 21:51:00,56.5,53.0,29.91,South,173,9.0,15.0,87,0.00,,,0.00,weatherlink.com 1.10,2013-06-25 04:51:00,
2013-06-24 22:07:00,56.5,53.0,29.91,SSE,153,7.0,15.0,87,0.00,,,0.00,weatherlink.com 1.10,2013-06-25 05:07:00,
2013-06-24 22:22:00,56.3,53.0,29.91,SSW,205,8.0,15.0,87,0.00,,,0.00,weatherlink.com 1.10,2013-06-25 05:22:00,
2013-06-24 22:37:00,56.1,53.0,29.91,South,183,13.0,15.0,88,0.00,,,0.00,weatherlink.com 1.10,2013-06-25 05:37:00,
2013-06-24 22:52:00,56.0,53.0,29.90,South,181,11.0,17.0,88,0.00,,,0.00,weatherlink.com 1.10,2013-06-25 05:52:00,
2013-06-24 23:07:00,55.8,52.0,29.91,SSW,198,11.0,15.0,88,0.00,,,0.00,weatherlink.com 1.10,2013-06-25 06:07:00,
2013-06-24 23:22:00,55.6,52.0,29.90,SW,219,4.0,12.0,88,0.00,,,0.00,weatherlink.com 1.10,2013-06-25 06:22:00,
2013-06-24 23:37:00,55.3,52.0,29.90,NW,323,1.0,10.0,89,0.00,,,0.00,weatherlink.com 1.10,2013-06-25 06:37:00,
2013-06-24 23:52:00,55.1,52.0,29.90,WNW,291,3.0,10.0,89,0.00,,,0.00,weatherlink.com 1.10,2013-06-25 06:52:00,